User: anonymous
Location: Vancouver
(49.2500°N, 123.1330°W)
Time: 04:59:55
(UTC-07:00)
Language:

Cosmos 1340 Rocket - Orbit

View from above orbital plane
View from above orbital plane
View from above satellite
View from above satellite

Ground track
Ground track

The orbit data is extracted from the following two-line orbital elements,

1 13068U 82013B   14292.79700371  .00003315  00000-0  23357-3 0  5355
2 13068 081.2036 250.1374 0021017 280.5037 079.3818 15.04598736777272
Epoch (UTC): 19 October 2014 19:07:41
Eccentricity: 0.0021017
inclination: 81.2036°
perigee height: 538 km
apogee height: 567 km
right ascension of ascending node: 250.1374°
argument of perigee: 280.5037°
revolutions per day: 15.04598736
mean anomaly at epoch: 79.3818°
orbit number at epoch: 77727

The dashed part of the orbit path shows where the satellite is in the earth's shadow,  

DLR